Retour au catalogue

STARLINK-34832

ActifCommunicationsVLEO
NORAD 65475·PAYLOAD·🇺🇸 United States

Lancé Sep 3, 2025 depuis Cape Canaveral Space Force Station

Loading…

Prochains Passages (prochaines 24 heures)

TLE

FraisSource: CelesTrak SupGP

Époque: Sep 14, 2026, 21:22 UTC

1 65475C 25195T   26257.89076389 -.00045354  00000+0 -13404-2 0  2574
2 65475  53.1584  95.5824 0001193  82.6791 309.4805 15.34403711    14

Suivez STARLINK-34832 en temps réel avec AllMySat

Download on the App Store